Location: Kuffner-Sternwarte
(48.2130°N, 16.2960°E)
Time: 06:27:31
(UTC+02:00)

Envisat - Pass Details

Date: 20 September 2024
Orbit: 762 x 764 km, 98.3° (Epoch: 04 October)

Event Time Altitude Azimuth Distance (km) Brightness Sun altitude
Rises 02:57:55 0° 26° (NNE) 3,237 7.3 -33.4°
Reaches altitude 10° 03:00:49 10° 43° (NE) 2,305 6.3 -33.0°
Maximum altitude 03:04:33 20° 91° (E) 1,696 5.1 -32.6°
Enters shadow 03:05:45 19° 110° (ESE) 1,766 5.0 -32.5°
